Preview of NWS' New Version of Forecast
This preview is not operational and should not be used for support decisions.

Regional Weather Roundup (RWR)

Issued by National Weather Service (NWS)

                            
000
ASUS43 KDTX 172010
RWRMI 
MICHIGAN HOURLY REGIONAL WEATHER ROUNDUP
NATIONAL WEATHER SERVICE DETROIT/PONTIAC MI
400 PM EDT WED APR 17 2019

NOTE: "FAIR" INDICATES FEW OR NO CLOUDS BELOW 12,000 FEET WITH NO
SIGNIFICANT WEATHER AND/OR OBSTRUCTION TO VISIBILITY.

MIZ047>049-052>055-059>063-066>070-074>076-081>083-172100-
SOUTHEAST LOWER MICHIGAN
  
CITY           SKY/WX    TMP DP  RH WIND       PRES   REMARKS
ADRIAN         FAIR      54  43  66 SE18      29.91F                  
ALMA           DRIZZLE   53  47  79 E10       29.89F                  
ANN ARBOR      FAIR      57  45  64 E14       29.92F                  
BAD AXE        CLOUDY    54  34  47 E9G17     29.96F                  
CARO           CLOUDY    54  40  59 E12G17    29.94F                  
DETROIT CITY   PTSUNNY   54  43  66 E17G24    29.96F                  
DETROIT        CLOUDY    57  43  59 E10G21    29.95F                  
FLINT          CLOUDY    56  44  64 SE15      29.93F                  
GROSSE ILE     FAIR      56  44  64 E8        29.95F                  
HILLSDALE      FAIR      58  44  60 SE14G21   29.90F                  
HOWELL         CLOUDY    57  43  59 SE14      29.91F                  

CITY           SKY/WX    TMP DP  RH WIND       PRES   REMARKS
JACKSON        FAIR      59  47  64 E15G28    29.88F                  
LAMBERTVILLE   FAIR      50  44  80 E9G17     29.93F                  
LANSING        FAIR      59  47  64 SE17G25   29.87F                  
LAPEER         CLOUDY    55  45  68 SE10G16   29.94F                  
MASON          FAIR      59  47  63 SE12G24   29.86F                  
MONROE         FAIR      49  46  88 E13G22    29.95F                  
MT. CLEMENS    CLOUDY    53  49  87 E8        29.94F                  
PONTIAC        CLOUDY    53  44  71 SE10      29.93F                  
PORT HOPE        N/A     41  33  73 E6        29.98F                  
PORT HURON     CLOUDY    59  45  58 SE10      29.97F                  
TRI CITIES     CLOUDY    49  43  80 NE13      29.93F                  
MIDLAND        CLOUDY    50  39  66 E9        29.92F                  
TROY           PTSUNNY   56  41  57 E9G16     29.97F                  
SAGINAW HB     CLOUDY    59  46  63 E9        29.92F                  
$$
MIZ043>046-050>051-056>058-064>065-071>073-077>080-172100-
SOUTHWEST LOWER MICHIGAN
  
CITY           SKY/WX    TMP DP  RH WIND       PRES   REMARKS
BATTLE CREEK   FAIR      64  49  57 S16       29.85F                  
BENTON HARBOR  FAIR      68  51  54 S15G28    29.78F                  
BIG RAPIDS     CLOUDY    51  46  83 S10       29.87F                  
COLDWATER      FAIR      61  49  64 E16G24    29.84F                  
FREMONT        LGT RAIN  51  45  78 E7G16     29.84F                  
HOLLAND        FAIR      64  50  60 E20G28    29.78F                  
GRAND RAPIDS   LGT RAIN  54  47  77 E14       29.84F                  
IONIA          FAIR      53  45  72 E13       29.84F                  
KALAMAZOO      FAIR      67  49  52 SE13G21   29.82F                  
LUDINGTON      LGT RAIN  48  46  93 E12G17    29.81F                  
MARSHALL       PTSUNNY   62  49  63 SE12      29.88R                  
MOUNT PLEASANT LGT RAIN  52  45  76 E7        29.90F                  
MUSKEGON       CLOUDY    56  44  64 E21       29.78F                  
SOUTH HAVEN    FAIR      67  49  52 SE10G20   29.79S                  
$$
MIZ016>042-172100-
NORTHERN LOWER MICHIGAN
  
CITY           SKY/WX    TMP DP  RH WIND       PRES   REMARKS
ALPENA         FAIR      48  24  39 SE13      30.00F                  
BEAVER ISLAND  FAIR      43  34  70 E13G22    29.91F                  
BELLAIRE       CLOUDY    59  33  37 SE13G21   29.87F                  
CADILLAC       FLURRIES  50  45  82 SE8       29.86F                  
CHARLEVOIX     FAIR      57  34  42 E14       29.90F                  
FRANKFORT      RAIN      54  44  70 E5        29.83F                  
GAYLORD        FAIR      54  32  43 SE13G24   29.90F                  
GRAYLING       PTSUNNY   54  31  41 E15       29.89                   
HARBOR SPRINGS FAIR      57  34  40 E15       29.91F                  
HOUGHTON LAKE  CLOUDY    53  32  44 SE15G28   29.91F                  
MANISTEE       RAIN      48  47  96 E12       29.82F FOG              
OSCODA         FAIR      44  30  59 E6        30.00F                  
PELLSTON       FAIR      57  34  41 SE14G22   29.92F                  
ROGERS CITY    FAIR      44  32  63 E9        30.00F                  
TRAVERSE CITY  CLOUDY    57  38  48 E12G23    29.85F                  
$$
MIZ007>008-015-172100-
EASTERN UPPER MICHIGAN
  
CITY           SKY/WX    TMP DP  RH WIND       PRES   REMARKS
KINROSS        FAIR      49  21  33 E15       29.98F                  
MACKINAC ISLAN FAIR      38  30  71 E20G29    29.96F WCI  29          
NEWBERRY       FAIR      51  33  49 E14G20    29.92F                  
S. S. MARIE    FAIR      49  27  42 E9G21     29.99F                  
MUNISING         N/A     56  31  38 SE13G21   29.86F                  
$$
MIZ004>006-011>014-085-172100-
CENTRAL UPPER MICHIGAN
  
CITY           SKY/WX    TMP DP  RH WIND       PRES   REMARKS
MANISTIQUE     FAIR      50  33  51 E9G17     29.89F                  
ESCANABA       CLOUDY    44  36  73 E9        29.88F                  
MENOMINEE      RAIN      40  37  89 E12       29.84F WCI  33          
SAWYER-GWINN   CLOUDY    55  27  33 SE12G17   29.85F                  
$$
MIZ001>003-009>011-084-172100-
WESTERN UPPER MICHIGAN
  
CITY           SKY/WX    TMP DP  RH WIND       PRES   REMARKS
IRON MOUNTAIN  CLOUDY    50  30  46 SE13      29.80F                  
HOUGHTON       CLOUDY    45  32  60 E12       29.84F                  
COPPER HARBOR    N/A     40  34  79 SE5       29.89F                  
IRONWOOD       LGT RAIN  53  29  39 E13       29.79                   
$$

ABBREVIATIONS USED IN REMARKS
   TC - TEMPERATURE IN CELSIUS
  WCI - WIND CHILL INDEX
   HX - HEAT INDEX
  VSB - VISIBILITY